sat.trackr.live / text

‹ back to catalog

HULIANWANG DIGUI-175

NORAD 69578 · 2026-137G

PAYLOAD ACTIVE UNKNOWN

§ Identity

Operator
Country
PRC
Launch date
2026-06-17
Launch site
WSC
Launch vehicle
Mass (kg)
RCS (m²)

External: N2YO · Heavens-Above · Gunter

§ Orbital elements

Epoch: 2026-09-19T05:43:57.205920Z

Period
108.33 min
Inclination
49.9961°
Eccentricity
0.0000258
Mean motion
13.29327627 rev/d
Perigee alt
1,149.1 km
Apogee alt
1,149.5 km
Semi-major
7,527.4 km
B*
9.7073e-5
RAAN
258.3491°
Arg perigee
355.2521°
Mean anomaly
4.8348°
Rev number
1,285

§ Raw data

HULIANWANG DIGUI-1751 69578U 26137G   26262.23885655 -.00000079  00000+0  97073-4 0  99902 69578  49.9961 258.3491 0000258 355.2521   4.8348 13.29327627 12850

JSON: /api/v1/satellites/69578 · /tle

For live sub-satellite position, see the globe view (requires WebGL).

§ Visibility from observer

Set your observer location to see the next 7 days of passes ≥ 10°. The values pass through the URL so the page stays shareable.

No JS? Fill the form by hand. The geolocation button needs JavaScript.